Flag for Qatar Weather past 2 weeks in Al Khor, Qatar

Now
90 °F

Clear.


Feels Like: 105 °F
Forecast: 85 / 102 °F
Wind: 5 mph from North

Location: Doha International Airport

Current Time: Sep 19, 2014 at 11:51:53 PM

Latest Report: Sep 19, 2014 at 11:00 PM


Visibility: 10 mi

Pressure: 29.74 "Hg

Humidity: 71%

Dew point: 79 °F

Location of Al KhorLocation

Historic Weather in Al Khor — Graph

°F

Al Khor temperature yesterday

Maximum temperature yesterday: 100 °F (at 12:00 PM)
Minimum temperature yesterday: 88 °F (at 6:00 AM)
Average temperature yesterday: 94 °F

Past Weeks' High & Low Weather Summary

 TemperatureHumidityPressure
High113 °F (Sep 5, 12:00 PM)84% (Sep 17, 2:00 AM)29.83 "Hg (Sep 17, 2:00 AM)
Low84 °F (Sep 14, 6:00 AM)8% (Sep 12, 3:00 PM)29.47 "Hg (Sep 5, 3:00 AM)
Average96 °F48%29.64 "Hg
* Reported Sep 4 10:00 PM — Sep 19 10:30 PM, Al Khor, Weather by CustomWeather, © 2014

Note: Actual official high and low records may vary slightly from our data, if they occured in-between our weather recording intervals... More about our weather records

Advertising

Al Khor weather history for previous 24 hours

 ConditionsComfort  
Time TempWeatherWind HumidityBarometerVisibility
10:30 PM
Sep 19
90 °FClear.5 mph71%29.77 "Hg10 mi
10:00 PM91 °FClear.5 mph67%29.77 "Hg10 mi
9:30 PM91 °FClear.5 mph67%29.77 "Hg10 mi
9:00 PM91 °FClear.6 mph71%29.77 "Hg10 mi
8:00 PM93 °FClear.7 mph67%29.77 "Hg10 mi
7:30 PM93 °FClear.8 mph63%29.77 "Hg10 mi
7:00 PM93 °FClear.8 mph63%29.77 "Hg10 mi
6:30 PM93 °FClear.8 mph63%29.74 "Hg10 mi
6:00 PM93 °FClear.9 mph63%29.74 "Hg10 mi
5:00 PM95 °FSunny.14 mph63%29.74 "Hg10 mi
4:30 PM95 °FSunny.13 mph63%29.74 "Hg10 mi
4:00 PM97 °FPassing clouds.12 mph56%29.74 "HgN/A
3:30 PM97 °FPassing clouds.10 mph56%29.74 "HgN/A
3:00 PM100 °FPassing clouds.10 mph37%29.74 "HgN/A
2:30 PM104 °FPassing clouds.8 mph23%29.74 "HgN/A
2:00 PM104 °FPassing clouds.8 mph21%29.74 "HgN/A
1:00 PM104 °FPassing clouds.8 mph16%29.77 "HgN/A
12:00 PM104 °FPassing clouds.7 mph20%29.77 "HgN/A
11:30 AM102 °FPassing clouds.6 mph26%29.80 "HgN/A
11:00 AM100 °FPassing clouds.7 mph27%29.80 "HgN/A
10:00 AM99 °FPassing clouds.5 mph37%29.83 "HgN/A
9:00 AM95 °FSunny.5 mph53%29.83 "Hg10 mi
8:30 AM93 °FSunny.5 mph59%29.83 "Hg10 mi
8:00 AM91 °FSunny.3 mph63%29.83 "Hg10 mi
7:00 AM90 °FSunny.7 mph67%29.80 "Hg10 mi
6:30 AM88 °FSunny.7 mph70%29.80 "Hg10 mi
5:30 AM88 °FSunny.6 mph70%29.77 "Hg10 mi
5:00 AM88 °FPassing clouds.7 mph70%29.77 "HgN/A
4:30 AM88 °FPassing clouds.3 mph70%29.77 "HgN/A
4:00 AM88 °FClear.5 mph70%29.77 "Hg10 mi
3:30 AM90 °FPassing clouds.3 mph67%29.74 "HgN/A
3:00 AM90 °FPassing clouds.3 mph67%29.74 "HgN/A
2:00 AM90 °FClear.6 mph67%29.74 "Hg10 mi
1:00 AM90 °FClear.6 mph67%29.74 "Hg10 mi
12:30 AM90 °FPassing clouds.5 mph67%29.74 "HgN/A
12:00 AM91 °FClear.5 mph63%29.77 "Hg10 mi
11:30 PM
Sep 18
91 °FClear.6 mph67%29.77 "Hg10 mi
11:00 PM91 °FClear.5 mph63%29.77 "Hg10 mi
Weather by CustomWeather, © 2014

See weather overviewHow to use our weather pages